Time,TemperatureF,DewpointF,PressureIn,WindDirection,WindDirectionDegrees,WindSpeedMPH,WindSpeedGustMPH,Humidity,HourlyPrecipIn,Conditions,Clouds,dailyrainin,SoftwareType,DateUTC
2013-02-06 00:02:00,12.9,11.0,30.16,SW,233,0.0,0.0,93,0.00,,,0.00,weatherlink.com 1.10,2013-02-06 06:02:00,
2013-02-06 00:17:00,13.2,11.0,30.16,East,80,0.0,0.0,92,0.00,,,0.00,weatherlink.com 1.10,2013-02-06 06:17:00,
2013-02-06 00:32:00,12.9,11.0,30.14,ENE,70,0.0,0.0,92,0.00,,,0.00,weatherlink.com 1.10,2013-02-06 06:32:00,
2013-02-06 00:47:00,12.5,11.0,30.14,ENE,70,0.0,0.0,92,0.00,,,0.00,weatherlink.com 1.10,2013-02-06 06:47:00,
2013-02-06 01:02:00,12.7,11.0,30.15,East,81,0.0,0.0,92,0.00,,,0.00,weatherlink.com 1.10,2013-02-06 07:02:00,
2013-02-06 01:17:00,12.4,10.0,30.14,ESE,106,0.0,0.0,91,0.00,,,0.00,weatherlink.com 1.10,2013-02-06 07:17:00,
2013-02-06 01:32:00,12.4,10.0,30.14,ESE,106,0.0,1.0,91,0.00,,,0.00,weatherlink.com 1.10,2013-02-06 07:32:00,
2013-02-06 01:47:00,12.4,10.0,30.14,East,101,0.0,0.0,91,0.00,,,0.00,weatherlink.com 1.10,2013-02-06 07:47:00,
2013-02-06 02:02:00,12.4,10.0,30.15,ESE,109,0.0,0.0,90,0.00,,,0.00,weatherlink.com 1.10,2013-02-06 08:02:00,
2013-02-06 02:17:00,12.5,10.0,30.15,East,95,0.0,1.0,90,0.00,,,0.00,weatherlink.com 1.10,2013-02-06 08:17:00,
2013-02-06 02:32:00,12.7,10.0,30.14,NE,52,1.0,3.0,90,0.00,,,0.00,weatherlink.com 1.10,2013-02-06 08:32:00,
2013-02-06 02:47:00,12.6,10.0,30.14,East,97,1.0,2.0,90,0.00,,,0.00,weatherlink.com 1.10,2013-02-06 08:47:00,
2013-02-06 03:17:00,12.0,10.0,30.14,East,83,0.0,2.0,90,0.00,,,0.00,weatherlink.com 1.10,2013-02-06 09:17:00,
2013-02-06 03:47:00,11.5,9.0,30.16,SW,220,0.0,0.0,90,0.00,,,0.00,weatherlink.com 1.10,2013-02-06 09:47:00,
2013-02-06 04:02:00,11.3,9.0,30.15,SSE,158,0.0,1.0,90,0.00,,,0.00,weatherlink.com 1.10,2013-02-06 10:02:00,
2013-02-06 04:17:00,11.5,9.0,30.14,SSE,158,0.0,0.0,91,0.00,,,0.00,weatherlink.com 1.10,2013-02-06 10:17:00,
2013-02-06 04:32:00,12.6,11.0,30.14,ESE,115,3.0,3.0,91,0.00,,,0.00,weatherlink.com 1.10,2013-02-06 10:32:00,
2013-02-06 04:47:00,13.4,11.0,30.14,ESE,117,1.0,2.0,90,0.00,,,0.00,weatherlink.com 1.10,2013-02-06 10:47:00,
2013-02-06 05:02:00,14.1,12.0,30.15,SE,130,0.0,2.0,89,0.00,,,0.00,weatherlink.com 1.10,2013-02-06 11:02:00,
2013-02-06 05:17:00,14.3,12.0,30.16,SSW,200,1.0,3.0,89,0.00,,,0.00,weatherlink.com 1.10,2013-02-06 11:17:00,
2013-02-06 05:32:00,14.5,12.0,30.16,SSW,203,0.0,4.0,89,0.00,,,0.00,weatherlink.com 1.10,2013-02-06 11:32:00,
2013-02-06 05:48:00,14.6,12.0,30.15,SSE,151,1.0,3.0,89,0.00,,,0.00,weatherlink.com 1.10,2013-02-06 11:48:00,
2013-02-06 06:03:00,15.1,13.0,30.14,East,101,2.0,3.0,89,0.00,,,0.00,weatherlink.com 1.10,2013-02-06 12:03:00,
2013-02-06 06:18:00,15.5,13.0,30.14,SE,124,2.0,3.0,88,0.00,,,0.00,weatherlink.com 1.10,2013-02-06 12:18:00,
2013-02-06 06:33:00,16.0,13.0,30.13,ESE,120,0.0,4.0,88,0.00,,,0.00,weatherlink.com 1.10,2013-02-06 12:33:00,
2013-02-06 06:48:00,16.3,13.0,30.13,ESE,120,1.0,3.0,88,0.00,,,0.00,weatherlink.com 1.10,2013-02-06 12:48:00,
2013-02-06 07:03:00,16.8,14.0,30.13,SSE,158,0.0,3.0,88,0.00,,,0.00,weatherlink.com 1.10,2013-02-06 13:03:00,
2013-02-06 07:18:00,17.2,14.0,30.13,ESE,116,1.0,3.0,88,0.00,,,0.00,weatherlink.com 1.10,2013-02-06 13:18:00,
2013-02-06 07:33:00,17.8,15.0,30.13,SE,141,0.0,3.0,88,0.00,,,0.00,weatherlink.com 1.10,2013-02-06 13:33:00,
2013-02-06 07:48:00,18.4,15.0,30.12,SSE,156,2.0,3.0,87,0.00,,,0.00,weatherlink.com 1.10,2013-02-06 13:48:00,
2013-02-06 08:03:00,19.0,16.0,30.13,ESE,107,3.0,4.0,87,0.00,,,0.00,weatherlink.com 1.10,2013-02-06 14:03:00,
2013-02-06 08:18:00,19.6,16.0,30.13,ESE,122,2.0,4.0,87,0.00,,,0.00,weatherlink.com 1.10,2013-02-06 14:18:00,
2013-02-06 08:33:00,20.3,17.0,30.12,SE,131,2.0,5.0,86,0.00,,,0.00,weatherlink.com 1.10,2013-02-06 14:33:00,
2013-02-06 08:48:00,21.0,18.0,30.12,SE,145,2.0,6.0,86,0.00,,,0.00,weatherlink.com 1.10,2013-02-06 14:48:00,
2013-02-06 09:03:00,21.9,18.0,30.12,ESE,116,3.0,7.0,85,0.00,,,0.00,weatherlink.com 1.10,2013-02-06 15:03:00,
2013-02-06 09:18:00,22.9,19.0,30.11,East,93,3.0,10.0,85,0.00,,,0.00,weatherlink.com 1.10,2013-02-06 15:18:00,
2013-02-06 09:33:00,24.2,20.0,30.10,East,98,8.0,8.0,85,0.00,,,0.00,weatherlink.com 1.10,2013-02-06 15:33:00,
2013-02-06 09:48:00,25.2,21.0,30.10,ESE,113,9.0,9.0,84,0.00,,,0.00,weatherlink.com 1.10,2013-02-06 15:48:00,
2013-02-06 10:03:00,26.2,22.0,30.09,SSW,194,4.0,11.0,84,0.00,,,0.00,weatherlink.com 1.10,2013-02-06 16:03:00,
2013-02-06 10:18:00,27.3,23.0,30.09,ESE,122,7.0,12.0,85,0.00,,,0.00,weatherlink.com 1.10,2013-02-06 16:18:00,
2013-02-06 10:33:00,28.8,25.0,30.09,SE,128,3.0,13.0,84,0.00,,,0.00,weatherlink.com 1.10,2013-02-06 16:33:00,
2013-02-06 10:48:00,30.0,25.0,30.08,ENE,65,8.0,15.0,83,0.00,,,0.00,weatherlink.com 1.10,2013-02-06 16:48:00,
2013-02-06 11:04:00,31.7,27.0,30.08,SSE,147,3.0,10.0,83,0.00,,,0.00,weatherlink.com 1.10,2013-02-06 17:04:00,
2013-02-06 11:19:00,32.7,27.0,30.08,SE,127,2.0,13.0,80,0.00,,,0.00,weatherlink.com 1.10,2013-02-06 17:19:00,
2013-02-06 11:34:00,33.2,28.0,30.07,SE,146,3.0,13.0,80,0.00,,,0.00,weatherlink.com 1.10,2013-02-06 17:34:00,
2013-02-06 11:49:00,33.6,28.0,30.07,SE,127,5.0,12.0,81,0.00,,,0.00,weatherlink.com 1.10,2013-02-06 17:49:00,
2013-02-06 12:04:00,34.6,29.0,30.05,SE,140,6.0,11.0,81,0.00,,,0.00,weatherlink.com 1.10,2013-02-06 18:04:00,
2013-02-06 12:19:00,35.1,30.0,30.04,SSE,158,4.0,11.0,81,0.00,,,0.00,weatherlink.com 1.10,2013-02-06 18:19:00,
2013-02-06 12:34:00,35.4,30.0,30.03,East,86,3.0,14.0,80,0.00,,,0.00,weatherlink.com 1.10,2013-02-06 18:34:00,
2013-02-06 12:49:00,35.6,30.0,30.01,South,178,9.0,14.0,81,0.00,,,0.00,weatherlink.com 1.10,2013-02-06 18:49:00,
2013-02-06 13:04:00,36.3,31.0,30.00,ESE,107,9.0,14.0,81,0.00,,,0.00,weatherlink.com 1.10,2013-02-06 19:04:00,
2013-02-06 13:19:00,36.8,31.0,29.99,WSW,256,7.0,14.0,80,0.00,,,0.00,weatherlink.com 1.10,2013-02-06 19:19:00,
2013-02-06 13:34:00,36.5,31.0,29.97,NNE,23,3.0,15.0,81,0.00,,,0.00,weatherlink.com 1.10,2013-02-06 19:34:00,
2013-02-06 13:49:00,36.5,31.0,29.96,SSE,160,3.0,15.0,81,0.00,,,0.00,weatherlink.com 1.10,2013-02-06 19:49:00,
2013-02-06 14:04:00,36.6,31.0,29.95,ENE,74,4.0,11.0,81,0.00,,,0.00,weatherlink.com 1.10,2013-02-06 20:04:00,
2013-02-06 14:19:00,36.3,32.0,29.95,SSW,206,12.0,19.0,83,0.00,,,0.00,weatherlink.com 1.10,2013-02-06 20:19:00,
2013-02-06 14:34:00,36.2,32.0,29.93,SE,130,6.0,12.0,84,0.00,,,0.00,weatherlink.com 1.10,2013-02-06 20:34:00,
2013-02-06 14:49:00,36.3,32.0,29.93,SW,214,3.0,15.0,83,0.00,,,0.00,weatherlink.com 1.10,2013-02-06 20:49:00,
2013-02-06 15:04:00,36.4,32.0,29.94,ESE,104,6.0,14.0,83,0.00,,,0.00,weatherlink.com 1.10,2013-02-06 21:04:00,
2013-02-06 15:19:00,36.3,32.0,29.93,SW,236,6.0,24.0,83,0.00,,,0.00,weatherlink.com 1.10,2013-02-06 21:19:00,
2013-02-06 15:34:00,36.2,32.0,29.92,East,89,6.0,14.0,84,0.00,,,0.00,weatherlink.com 1.10,2013-02-06 21:34:00,
2013-02-06 15:49:00,36.1,32.0,29.92,SSE,157,3.0,16.0,85,0.00,,,0.00,weatherlink.com 1.10,2013-02-06 21:49:00,
2013-02-06 16:19:00,36.0,32.0,29.92,SW,234,6.0,17.0,86,0.00,,,0.00,weatherlink.com 1.10,2013-02-06 22:19:00,
2013-02-06 16:34:00,36.3,33.0,29.92,SE,137,5.0,14.0,86,0.00,,,0.00,weatherlink.com 1.10,2013-02-06 22:34:00,
2013-02-06 16:49:00,36.6,33.0,29.92,SW,230,7.0,13.0,85,0.00,,,0.00,weatherlink.com 1.10,2013-02-06 22:49:00,
2013-02-06 17:04:00,36.5,33.0,29.91,SSW,203,9.0,21.0,86,0.00,,,0.00,weatherlink.com 1.10,2013-02-06 23:04:00,
2013-02-06 17:19:00,36.8,33.0,29.91,SE,145,9.0,16.0,85,0.00,,,0.00,weatherlink.com 1.10,2013-02-06 23:19:00,
2013-02-06 17:34:00,36.6,33.0,29.93,SSW,213,9.0,17.0,86,0.00,,,0.00,weatherlink.com 1.10,2013-02-06 23:34:00,
2013-02-06 17:49:00,36.8,33.0,29.94,South,190,2.0,16.0,85,0.00,,,0.00,weatherlink.com 1.10,2013-02-06 23:49:00,
2013-02-06 18:04:00,36.9,33.0,29.96,SW,223,2.0,8.0,85,0.00,,,0.00,weatherlink.com 1.10,2013-02-07 00:04:00,
2013-02-06 18:19:00,37.1,33.0,29.97,SW,224,0.0,9.0,85,0.00,,,0.00,weatherlink.com 1.10,2013-02-07 00:19:00,
2013-02-06 18:34:00,36.9,33.0,29.98,SW,231,2.0,4.0,85,0.00,,,0.00,weatherlink.com 1.10,2013-02-07 00:34:00,
2013-02-06 18:49:00,36.9,33.0,29.98,SSW,207,1.0,5.0,86,0.00,,,0.00,weatherlink.com 1.10,2013-02-07 00:49:00,
2013-02-06 19:04:00,36.8,33.0,29.98,South,174,0.0,4.0,86,0.00,,,0.00,weatherlink.com 1.10,2013-02-07 01:04:00,
2013-02-06 19:19:00,36.7,33.0,29.99,SE,140,1.0,4.0,87,0.00,,,0.00,weatherlink.com 1.10,2013-02-07 01:19:00,
2013-02-06 19:34:00,36.9,33.0,29.99,SE,144,2.0,5.0,86,0.00,,,0.00,weatherlink.com 1.10,2013-02-07 01:34:00,
2013-02-06 19:49:00,36.8,33.0,29.99,SE,137,1.0,5.0,86,0.00,,,0.00,weatherlink.com 1.10,2013-02-07 01:49:00,
2013-02-06 20:04:00,36.5,33.0,29.99,SSE,162,0.0,3.0,87,0.00,,,0.00,weatherlink.com 1.10,2013-02-07 02:04:00,
2013-02-06 20:20:00,36.2,33.0,29.99,SE,142,1.0,4.0,88,0.00,,,0.00,weatherlink.com 1.10,2013-02-07 02:20:00,
2013-02-06 20:35:00,35.9,33.0,29.99,SSE,167,0.0,2.0,89,0.00,,,0.00,weatherlink.com 1.10,2013-02-07 02:35:00,
2013-02-06 20:50:00,35.6,33.0,29.99,ESE,105,0.0,2.0,89,0.00,,,0.00,weatherlink.com 1.10,2013-02-07 02:50:00,
2013-02-06 21:05:00,35.5,33.0,29.99,SE,127,0.0,0.0,90,0.00,,,0.00,weatherlink.com 1.10,2013-02-07 03:05:00,
2013-02-06 21:20:00,35.2,33.0,29.98,SE,124,2.0,3.0,90,0.00,,,0.00,weatherlink.com 1.10,2013-02-07 03:20:00,
2013-02-06 21:35:00,35.2,33.0,29.98,SE,126,1.0,3.0,91,0.00,,,0.00,weatherlink.com 1.10,2013-02-07 03:35:00,
2013-02-06 21:50:00,35.1,33.0,29.98,ESE,122,0.0,2.0,91,0.00,,,0.00,weatherlink.com 1.10,2013-02-07 03:50:00,
2013-02-06 22:05:00,35.2,33.0,29.98,East,96,0.0,1.0,91,0.00,,,0.00,weatherlink.com 1.10,2013-02-07 04:05:00,
2013-02-06 22:20:00,35.3,33.0,29.98,East,97,0.0,0.0,90,0.00,,,0.00,weatherlink.com 1.10,2013-02-07 04:20:00,
2013-02-06 22:35:00,34.9,33.0,29.98,East,97,0.0,0.0,91,0.00,,,0.00,weatherlink.com 1.10,2013-02-07 04:35:00,
2013-02-06 22:50:00,34.8,33.0,29.98,East,97,0.0,0.0,91,0.00,,,0.00,weatherlink.com 1.10,2013-02-07 04:50:00,
2013-02-06 23:05:00,35.1,33.0,29.97,East,101,1.0,2.0,90,0.00,,,0.00,weatherlink.com 1.10,2013-02-07 05:05:00,
2013-02-06 23:20:00,35.1,33.0,29.97,ESE,107,0.0,1.0,90,0.00,,,0.00,weatherlink.com 1.10,2013-02-07 05:20:00,
2013-02-06 23:35:00,35.5,33.0,29.98,East,96,0.0,1.0,90,0.00,,,0.00,weatherlink.com 1.10,2013-02-07 05:35:00,
2013-02-06 23:50:00,35.6,33.0,29.98,East,96,0.0,0.0,89,0.00,,,0.00,weatherlink.com 1.10,2013-02-07 05:50:00,